Content
SEND FEEDBACK

Daily
Averages
Monthly
Summary
United States of America

DRYDEN, WASHINGTON


Home > North America > United States > Washington
Elevation: 1233 feet     Latitude: 47 36N     Longitude: 120 39W

WEATHER
 
SELECT A DAY
Number of Records: 244,236;   Date Range: 1/1/95 - 7/29/14
 
SHARE

PRINT THIS DATA

[ ← Previous Day ]
WEATHER ALMANAC - JANUARY 23, 2013
[ Next Day → ]
[ °C ]   °F
Weather ElementAverageHighLow
Temperature24.1 °F26.6 °F (2:02 pm)21 °F (1:55 am)
Dewpoint19.5 °F21.9 °F (4:55 pm)16 °F (1:55 am)
Humidity83 %92 % (8:55 pm)77 % (10:55 am)
Barometer30.07 in30.22 in (1:55 am)29.96 in (5:44 pm)
Wind Speed1.4 mph5.8 mph (4:55 am)
Weather ElementAverage
Visibility7.6 mi
Wind DirectionENE (76 °)

Weather ElementTotal
Precipitation---
Heating Degree Days41.2 (Base 65)
Averaged from 30 records on January 23, 2013
WEATHER CONDITIONS BREAKOUT
WIND DIRECTION BREAKOUT
WEATHER BY HOUR - JANUARY 23, 2013
[ °C ]   °F
Local TimeTemperatureDewpointHumidityBarometerVisibilityWind DirectionWind SpeedGust SpeedPrecipitationEventsConditions
1:55 AM21.0 °F16.0 °F81 %30.22 in10.0 miCalmScattered Clouds
2:55 AM21.9 °F17.1 °F82 %30.22 in10.0 miCalmMostly Cloudy
3:55 AM21.9 °F17.1 °F82 %30.19 in10.0 miCalmMostly Cloudy
4:55 AM21.9 °F17.1 °F82 %30.17 in10.0 miWNW (300°)5.8 mphMostly Cloudy
5:55 AM21.9 °F17.1 °F82 %30.18 in10.0 miWest (280°)3.5 mphScattered Clouds
6:55 AM21.9 °F17.1 °F82 %30.15 in10.0 miWest (280°)4.6 mphOvercast
7:55 AM21.9 °F18.0 °F85 %30.14 in10.0 miCalmOvercast
8:55 AM23.0 °F18.0 °F81 %30.14 in10.0 miWest (270°)4.6 mphOvercast
9:55 AM23.0 °F18.0 °F81 %30.13 in10.0 miWest (260°)4.6 mphOvercast
10:55 AM24.1 °F18.0 °F77 %30.12 in10.0 miCalmOvercast
11:55 AM25.0 °F19.0 °F78 %30.10 in10.0 miWSW (240°)4.6 mphOvercast
12:55 PM25.0 °F19.0 °F78 %30.06 in10.0 miCalmOvercast
1:37 PM24.8 °F19.4 °F80 %29.99 in2.0 miCalm0.00 inSnowLight Snow
1:50 PM24.8 °F19.4 °F80 %29.98 in3.0 miCalm0.00 inSnowLight Snow
1:55 PM25.0 °F21.0 °F85 %30.03 in2.5 miCalm0.00 inSnowLight Snow
2:02 PM26.6 °F21.2 °F80 %29.98 in1.8 miCalm0.00 inSnowLight Snow
2:21 PM24.8 °F21.2 °F86 %29.97 in3.0 miCalm0.00 inSnowLight Snow
2:28 PM24.8 °F21.2 °F86 %29.97 in5.0 miCalm0.00 inSnowLight Snow
2:42 PM24.8 °F21.2 °F86 %29.97 in7.0 miWSW (240°)3.5 mph0.00 inOvercast
2:55 PM25.0 °F21.0 °F85 %30.02 in6.0 miWSW (250°)3.5 mph0.00 inOvercast
3:55 PM26.1 °F21.0 °F81 %30.01 in6.0 miCalm0.00 inHaze
4:55 PM26.1 °F21.9 °F84 %30.02 in9.0 miCalmOvercast
5:26 PM26.6 °F21.2 °F80 %29.97 in10.0 miCalmOvercast
5:44 PM26.6 °F21.2 °F80 %29.96 in10.0 miCalmOvercast
5:55 PM26.1 °F21.9 °F84 %30.01 in9.0 miCalmOvercast
6:55 PM26.1 °F21.9 °F84 %30.01 in8.0 miCalmClear
7:55 PM25.0 °F21.9 °F88 %30.03 in8.0 miCalmClear
8:55 PM23.0 °F21.0 °F92 %30.06 in7.0 miCalmClear
10:55 PM21.0 °F18.0 °F88 %30.10 in6.0 miEast (90°)3.5 mphClear
11:55 PM21.9 °F19.0 °F89 %30.12 in6.0 miENE (70°)3.5 mphClear
Hourly data recorded from KEAT, located miles away from Dryden, Washington







STORIES FROM OUR PARTNERS